Time,TemperatureF,DewpointF,PressureIn,WindDirection,WindDirectionDegrees,WindSpeedMPH,WindSpeedGustMPH,Humidity,HourlyPrecipIn,Conditions,Clouds,dailyrainin,SoftwareType,DateUTC
2013-06-24 00:05:00,78.8,68.6,29.73,SSE,161,5.0,10.0,71,0.00,,,0.32,Wunderground v.1.15,2013-06-24 05:05:00,
2013-06-24 00:10:00,79.0,68.4,29.73,SSE,150,6.0,10.0,70,0.00,,,0.32,Wunderground v.1.15,2013-06-24 05:10:00,
2013-06-24 00:20:00,79.0,68.0,29.73,SSE,157,6.0,13.0,69,0.00,,,0.32,Wunderground v.1.15,2013-06-24 05:20:00,
2013-06-24 00:25:00,79.2,68.1,29.73,SSE,167,6.0,13.0,69,0.00,,,0.32,Wunderground v.1.15,2013-06-24 05:25:00,
2013-06-24 00:40:00,79.4,67.5,29.72,SSE,148,6.0,13.0,67,0.00,,,0.32,Wunderground v.1.15,2013-06-24 05:40:00,
2013-06-24 00:45:00,79.2,67.3,29.72,SW,220,6.0,13.0,67,0.00,,,0.32,Wunderground v.1.15,2013-06-24 05:45:00,
2013-06-24 00:50:00,79.4,67.5,29.72,SSE,150,7.0,14.0,67,0.00,,,0.32,Wunderground v.1.15,2013-06-24 05:50:00,
2013-06-24 01:00:00,79.2,67.3,29.71,SSE,157,7.0,7.0,67,0.00,,,0.32,Wunderground v.1.15,2013-06-24 06:00:00,
2013-06-24 01:15:00,79.2,66.9,29.71,South,185,6.0,14.0,66,0.00,,,0.32,Wunderground v.1.15,2013-06-24 06:15:00,
2013-06-24 01:25:00,79.0,66.7,29.71,SSW,209,5.0,16.0,66,0.00,,,0.32,Wunderground v.1.15,2013-06-24 06:25:00,
2013-06-24 01:35:00,79.0,66.7,29.70,SE,145,6.0,16.0,66,0.00,,,0.32,Wunderground v.1.15,2013-06-24 06:35:00,
2013-06-24 01:40:00,78.8,66.5,29.70,ESE,123,5.0,5.0,66,0.00,,,0.32,Wunderground v.1.15,2013-06-24 06:40:00,
2013-06-24 01:50:00,78.8,66.5,29.70,SSE,151,7.0,16.0,66,0.00,,,0.32,Wunderground v.1.15,2013-06-24 06:50:00,
2013-06-24 02:00:00,78.6,66.3,29.70,SSW,193,6.0,6.0,66,0.00,,,0.32,Wunderground v.1.15,2013-06-24 07:00:00,
2013-06-24 02:05:00,78.5,66.2,29.70,SSW,213,7.0,14.0,66,0.00,,,0.32,Wunderground v.1.15,2013-06-24 07:05:00,
2013-06-24 02:20:00,78.5,66.6,29.70,SE,137,7.0,7.0,67,0.00,,,0.32,Wunderground v.1.15,2013-06-24 07:20:00,
2013-06-24 02:30:00,78.5,66.6,29.70,South,175,7.0,18.0,67,0.00,,,0.32,Wunderground v.1.15,2013-06-24 07:30:00,
2013-06-24 02:45:00,78.3,66.4,29.71,SE,137,6.0,18.0,67,0.00,,,0.32,Wunderground v.1.15,2013-06-24 07:45:00,
2013-06-24 02:50:00,78.1,66.2,29.71,South,181,5.0,5.0,67,0.00,,,0.32,Wunderground v.1.15,2013-06-24 07:50:00,
2013-06-24 02:55:00,78.1,66.2,29.71,SE,144,3.0,17.0,67,0.00,,,0.32,Wunderground v.1.15,2013-06-24 07:55:00,
2013-06-24 03:05:00,77.7,66.3,29.71,SSE,148,4.0,17.0,68,0.00,,,0.32,Wunderground v.1.15,2013-06-24 08:05:00,
2013-06-24 03:10:00,77.4,66.4,29.71,SE,137,3.0,3.0,69,0.00,,,0.32,Wunderground v.1.15,2013-06-24 08:10:00,
2013-06-24 03:20:00,77.0,66.0,29.71,SSE,157,4.0,4.0,69,0.00,,,0.32,Wunderground v.1.15,2013-06-24 08:20:00,
2013-06-24 03:30:00,76.7,66.2,29.71,SE,137,5.0,9.0,70,0.00,,,0.32,Wunderground v.1.15,2013-06-24 08:30:00,
2013-06-24 03:45:00,76.3,66.2,29.72,SE,137,6.0,9.0,71,0.00,,,0.32,Wunderground v.1.15,2013-06-24 08:45:00,
2013-06-24 03:50:00,76.3,66.2,29.72,SSE,148,7.0,7.0,71,0.00,,,0.32,Wunderground v.1.15,2013-06-24 08:50:00,
2013-06-24 04:00:00,76.0,66.3,29.72,SSE,155,5.0,5.0,72,0.00,,,0.32,Wunderground v.1.15,2013-06-24 09:00:00,
2013-06-24 04:10:00,76.0,66.3,29.72,SSE,158,6.0,9.0,72,0.00,,,0.32,Wunderground v.1.15,2013-06-24 09:10:00,
2013-06-24 04:20:00,76.0,66.3,29.72,SE,140,5.0,5.0,72,0.00,,,0.32,Wunderground v.1.15,2013-06-24 09:20:00,
2013-06-24 04:30:00,76.1,66.4,29.72,SSE,148,6.0,13.0,72,0.00,,,0.32,Wunderground v.1.15,2013-06-24 09:30:00,
2013-06-24 04:40:00,76.0,66.3,29.72,SE,131,7.0,7.0,72,0.00,,,0.32,Wunderground v.1.15,2013-06-24 09:40:00,
2013-06-24 04:50:00,75.6,66.3,29.72,SSE,154,6.0,13.0,73,0.00,,,0.32,Wunderground v.1.15,2013-06-24 09:50:00,
2013-06-24 04:55:00,75.6,66.3,29.72,SSE,151,6.0,13.0,73,0.00,,,0.32,Wunderground v.1.15,2013-06-24 09:55:00,
2013-06-24 05:00:00,75.6,66.3,29.73,SE,144,7.0,13.0,73,0.00,,,0.32,Wunderground v.1.15,2013-06-24 10:00:00,
2013-06-24 05:10:00,76.0,66.7,29.73,ESE,121,7.0,7.0,73,0.00,,,0.32,Wunderground v.1.15,2013-06-24 10:10:00,
2013-06-24 05:20:00,75.4,66.5,29.73,SE,134,7.0,7.0,74,0.00,,,0.32,Wunderground v.1.15,2013-06-24 10:20:00,
2013-06-24 05:35:00,75.1,66.6,29.73,SSE,152,6.0,11.0,75,0.00,,,0.32,Wunderground v.1.15,2013-06-24 10:35:00,
2013-06-24 05:40:00,75.3,66.8,29.73,SSE,155,6.0,6.0,75,0.00,,,0.32,Wunderground v.1.15,2013-06-24 10:40:00,
2013-06-24 05:50:00,75.3,66.8,29.72,SE,144,7.0,13.0,75,0.00,,,0.32,Wunderground v.1.15,2013-06-24 10:50:00,
2013-06-24 05:55:00,75.3,66.8,29.72,ESE,109,7.0,13.0,75,0.00,,,0.32,Wunderground v.1.15,2013-06-24 10:55:00,
2013-06-24 06:05:00,75.3,66.8,29.72,SSE,158,6.0,13.0,75,0.00,,,0.32,Wunderground v.1.15,2013-06-24 11:05:00,
2013-06-24 06:15:00,75.4,66.9,29.73,SSE,155,5.0,13.0,75,0.00,,,0.00,Wunderground v.1.15,2013-06-24 11:15:00,
2013-06-24 06:25:00,75.4,66.9,29.73,South,176,5.0,7.0,75,0.00,,,0.00,Wunderground v.1.15,2013-06-24 11:25:00,
2013-06-24 06:35:00,75.6,67.1,29.74,SE,145,6.0,13.0,75,0.00,,,0.00,Wunderground v.1.15,2013-06-24 11:35:00,
2013-06-24 06:45:00,75.6,67.1,29.74,SE,145,6.0,13.0,75,0.00,,,0.00,Wunderground v.1.15,2013-06-24 11:45:00,
2013-06-24 06:50:00,75.6,67.1,29.74,SE,133,6.0,13.0,75,0.00,,,0.00,Wunderground v.1.15,2013-06-24 11:50:00,
2013-06-24 07:05:00,75.4,66.9,29.73,South,185,7.0,10.0,75,0.00,,,0.00,Wunderground v.1.15,2013-06-24 12:05:00,
2013-06-24 07:10:00,75.4,66.9,29.73,SE,127,6.0,13.0,75,0.00,,,0.00,Wunderground v.1.15,2013-06-24 12:10:00,
2013-06-24 07:20:00,75.6,67.1,29.73,SE,134,6.0,6.0,75,0.00,,,0.00,Wunderground v.1.15,2013-06-24 12:20:00,
2013-06-24 07:30:00,75.6,67.1,29.72,SSE,151,5.0,13.0,75,0.00,,,0.00,Wunderground v.1.15,2013-06-24 12:30:00,
2013-06-24 07:40:00,75.8,67.7,29.72,SE,137,6.0,13.0,76,0.00,,,0.00,Wunderground v.1.15,2013-06-24 12:40:00,
2013-06-24 07:45:00,76.0,67.9,29.72,SSE,147,6.0,13.0,76,0.00,,,0.00,Wunderground v.1.15,2013-06-24 12:45:00,
2013-06-24 07:55:00,76.5,68.0,29.72,South,178,5.0,14.0,75,0.00,,,0.00,Wunderground v.1.15,2013-06-24 12:55:00,
2013-06-24 08:05:00,76.8,68.3,29.72,SSE,161,5.0,14.0,75,0.00,,,0.00,Wunderground v.1.15,2013-06-24 13:05:00,
2013-06-24 08:15:00,77.4,68.5,29.71,SSW,203,7.0,14.0,74,0.00,,,0.00,Wunderground v.1.15,2013-06-24 13:15:00,
2013-06-24 08:25:00,77.7,68.7,29.71,SW,219,7.0,16.0,74,0.00,,,0.00,Wunderground v.1.15,2013-06-24 13:25:00,
2013-06-24 08:35:00,78.3,68.5,29.71,South,185,8.0,16.0,72,0.00,,,0.00,Wunderground v.1.15,2013-06-24 13:35:00,
2013-06-24 08:40:00,78.5,68.7,29.71,SSE,158,7.0,7.0,72,0.00,,,0.00,Wunderground v.1.15,2013-06-24 13:40:00,
2013-06-24 08:50:00,78.8,69.0,29.71,South,175,8.0,16.0,72,0.00,,,0.00,Wunderground v.1.15,2013-06-24 13:50:00,
2013-06-24 09:00:00,79.6,69.4,29.71,SSW,202,7.0,7.0,71,0.00,,,0.00,Wunderground v.1.15,2013-06-24 14:00:00,
2013-06-24 09:05:00,79.8,69.1,29.71,SSE,148,7.0,8.0,70,0.00,,,0.00,Wunderground v.1.15,2013-06-24 14:05:00,
2013-06-24 09:20:00,80.3,69.2,29.72,South,182,8.0,20.0,69,0.00,,,0.00,Wunderground v.1.15,2013-06-24 14:20:00,
2013-06-24 09:25:00,80.7,69.6,29.72,SSW,212,11.0,20.0,69,0.00,,,0.00,Wunderground v.1.15,2013-06-24 14:25:00,
2013-06-24 09:30:00,80.9,69.8,29.73,SSW,209,10.0,10.0,69,0.00,,,0.00,Wunderground v.1.15,2013-06-24 14:30:00,
2013-06-24 09:40:00,81.4,68.9,29.73,South,188,14.0,14.0,66,0.00,,,0.00,Wunderground v.1.15,2013-06-24 14:40:00,
2013-06-24 09:45:00,81.8,69.8,29.74,SSW,208,15.0,17.0,67,0.00,,,0.00,Wunderground v.1.15,2013-06-24 14:45:00,
2013-06-24 09:55:00,81.8,68.9,29.74,SSW,210,11.0,28.0,65,0.00,,,0.00,Wunderground v.1.15,2013-06-24 14:55:00,
2013-06-24 10:05:00,82.0,69.5,29.73,South,175,11.0,28.0,66,0.00,,,0.00,Wunderground v.1.15,2013-06-24 15:05:00,
2013-06-24 10:20:00,82.4,69.0,29.73,SW,227,13.0,23.0,64,0.00,,,0.00,Wunderground v.1.15,2013-06-24 15:20:00,
2013-06-24 10:25:00,82.8,69.8,29.73,WSW,239,15.0,23.0,65,0.00,,,0.00,Wunderground v.1.15,2013-06-24 15:25:00,
2013-06-24 10:30:00,83.0,69.1,29.74,SSW,209,14.0,23.0,63,0.00,,,0.00,Wunderground v.1.15,2013-06-24 15:30:00,
2013-06-24 10:45:00,81.6,68.2,29.77,WSW,256,12.0,23.0,64,0.00,,,0.00,Wunderground v.1.15,2013-06-24 15:45:00,
2013-06-24 10:50:00,81.2,68.3,29.77,WSW,240,12.0,12.0,65,0.00,,,0.00,Wunderground v.1.15,2013-06-24 15:50:00,
2013-06-24 11:00:00,80.9,68.5,29.78,West,260,10.0,25.0,66,0.00,,,0.00,Wunderground v.1.15,2013-06-24 16:00:00,
2013-06-24 11:10:00,80.1,68.6,29.78,SW,234,9.0,25.0,68,0.00,,,0.00,Wunderground v.1.15,2013-06-24 16:10:00,
2013-06-24 11:15:00,76.3,66.6,29.82,WNW,302,12.0,25.0,72,0.00,,,0.00,Wunderground v.1.15,2013-06-24 16:15:00,
2013-06-24 11:25:00,72.1,65.2,29.82,SW,234,15.0,29.0,79,0.20,,,0.03,Wunderground v.1.15,2013-06-24 16:25:00,
2013-06-24 11:35:00,70.6,65.2,29.81,WNW,287,16.0,29.0,83,1.11,,,0.16,Wunderground v.1.15,2013-06-24 16:35:00,
2013-06-24 11:40:00,69.9,64.8,29.81,West,264,11.0,11.0,84,0.49,,,0.23,Wunderground v.1.15,2013-06-24 16:40:00,
2013-06-24 11:45:00,70.1,65.4,29.82,SW,233,8.0,29.0,85,0.12,,,0.24,Wunderground v.1.15,2013-06-24 16:45:00,
2013-06-24 11:55:00,70.4,66.0,29.82,South,176,2.0,32.0,86,0.09,,,0.26,Wunderground v.1.15,2013-06-24 16:55:00,
2013-06-24 12:00:00,70.4,66.0,29.80,ESE,109,1.0,1.0,86,0.08,,,0.26,Wunderground v.1.15,2013-06-24 17:00:00,
2013-06-24 12:10:00,70.4,66.3,29.80,East,100,1.0,32.0,87,0.04,,,0.26,Wunderground v.1.15,2013-06-24 17:10:00,
2013-06-24 12:25:00,70.3,66.6,29.81,ESE,104,1.0,8.0,88,0.00,,,0.26,Wunderground v.1.15,2013-06-24 17:25:00,
2013-06-24 12:30:00,70.4,66.7,29.79,ESE,104,1.0,1.0,88,0.00,,,0.26,Wunderground v.1.15,2013-06-24 17:30:00,
2013-06-24 12:40:00,70.4,67.0,29.79,East,95,1.0,8.0,89,0.00,,,0.26,Wunderground v.1.15,2013-06-24 17:40:00,
2013-06-24 12:55:00,70.1,66.7,29.78,East,88,2.0,7.0,89,0.00,,,0.26,Wunderground v.1.15,2013-06-24 17:55:00,
2013-06-24 13:05:00,70.1,66.7,29.78,East,89,1.0,7.0,89,0.00,,,0.26,Wunderground v.1.15,2013-06-24 18:05:00,
2013-06-24 13:15:00,70.4,67.0,29.77,East,86,1.0,7.0,89,0.00,,,0.26,Wunderground v.1.15,2013-06-24 18:15:00,
2013-06-24 13:25:00,70.1,66.7,29.77,ENE,71,3.0,7.0,89,0.00,,,0.26,Wunderground v.1.15,2013-06-24 18:25:00,
2013-06-24 13:35:00,70.1,66.4,29.70,East,99,5.0,8.0,88,0.00,,,0.26,Wunderground v.1.15,2013-06-24 18:35:00,
2013-06-24 13:50:00,70.6,66.2,29.68,ENE,73,3.0,17.0,86,0.00,,,0.26,Wunderground v.1.15,2013-06-24 18:50:00,
2013-06-24 14:00:00,71.5,66.8,29.67,NE,52,3.0,17.0,85,0.00,,,0.26,Wunderground v.1.15,2013-06-24 19:00:00,
2013-06-24 14:10:00,73.0,67.2,29.67,ESE,114,5.0,17.0,82,0.00,,,0.26,Wunderground v.1.15,2013-06-24 19:10:00,
2013-06-24 14:20:00,74.9,67.9,29.68,ESE,102,6.0,6.0,79,0.00,,,0.26,Wunderground v.1.15,2013-06-24 19:20:00,
2013-06-24 14:30:00,76.8,68.7,29.67,SE,130,5.0,13.0,76,0.00,,,0.26,Wunderground v.1.15,2013-06-24 19:30:00,
2013-06-24 14:45:00,77.7,68.0,29.67,East,79,4.0,13.0,72,0.00,,,0.26,Wunderground v.1.15,2013-06-24 19:45:00,
2013-06-24 14:55:00,77.7,68.0,29.67,East,93,3.0,6.0,72,0.00,,,0.26,Wunderground v.1.15,2013-06-24 19:55:00,
2013-06-24 15:00:00,77.7,68.0,29.68,ESE,102,4.0,17.0,72,0.00,,,0.26,Wunderground v.1.15,2013-06-24 20:00:00,
2013-06-24 15:10:00,78.6,68.8,29.68,East,86,3.0,3.0,72,0.00,,,0.26,Wunderground v.1.15,2013-06-24 20:10:00,
2013-06-24 15:25:00,81.1,70.0,29.68,East,97,2.0,10.0,69,0.00,,,0.26,Wunderground v.1.15,2013-06-24 20:25:00,
2013-06-24 15:35:00,81.8,70.2,29.68,SE,124,3.0,10.0,68,0.00,,,0.26,Wunderground v.1.15,2013-06-24 20:35:00,
2013-06-24 15:45:00,83.2,71.5,29.68,East,86,3.0,10.0,68,0.00,,,0.26,Wunderground v.1.15,2013-06-24 20:45:00,
2013-06-24 15:55:00,84.1,72.0,29.68,East,80,1.0,10.0,67,0.00,,,0.26,Wunderground v.1.15,2013-06-24 20:55:00,
2013-06-24 16:00:00,84.3,72.1,29.70,South,169,1.0,10.0,67,0.00,,,0.26,Wunderground v.1.15,2013-06-24 21:00:00,
2013-06-24 16:10:00,85.7,70.7,29.70,South,191,7.0,10.0,61,0.00,,,0.26,Wunderground v.1.15,2013-06-24 21:10:00,
2013-06-24 16:20:00,85.9,69.9,29.68,SSE,168,10.0,10.0,59,0.00,,,0.26,Wunderground v.1.15,2013-06-24 21:20:00,
2013-06-24 16:25:00,85.7,69.2,29.68,SSE,147,8.0,20.0,58,0.00,,,0.26,Wunderground v.1.15,2013-06-24 21:25:00,
2013-06-24 16:40:00,85.1,68.2,29.67,SSE,148,8.0,20.0,57,0.00,,,0.26,Wunderground v.1.15,2013-06-24 21:40:00,
2013-06-24 16:50:00,84.5,68.1,29.65,SSE,151,7.0,7.0,58,0.00,,,0.26,Wunderground v.1.15,2013-06-24 21:50:00,
2013-06-24 17:00:00,84.1,67.7,29.63,SSE,150,7.0,22.0,58,0.00,,,0.26,Wunderground v.1.15,2013-06-24 22:00:00,
2013-06-24 17:10:00,84.1,67.2,29.63,SE,140,9.0,9.0,57,0.00,,,0.26,Wunderground v.1.15,2013-06-24 22:10:00,
2013-06-24 17:15:00,84.0,67.1,29.61,South,174,8.0,22.0,57,0.00,,,0.26,Wunderground v.1.15,2013-06-24 22:15:00,
2013-06-24 17:25:00,83.6,66.8,29.61,South,169,11.0,11.0,57,0.00,,,0.26,Wunderground v.1.15,2013-06-24 22:25:00,
2013-06-24 17:30:00,83.8,66.4,29.58,SSE,157,11.0,11.0,56,0.00,,,0.26,Wunderground v.1.15,2013-06-24 22:30:00,
2013-06-24 17:40:00,83.8,66.4,29.58,South,184,10.0,21.0,56,0.00,,,0.26,Wunderground v.1.15,2013-06-24 22:40:00,
2013-06-24 17:50:00,84.0,66.6,29.60,SSE,151,10.0,24.0,56,0.00,,,0.26,Wunderground v.1.15,2013-06-24 22:50:00,
2013-06-24 17:55:00,84.0,66.1,29.60,SE,127,10.0,24.0,55,0.00,,,0.26,Wunderground v.1.15,2013-06-24 22:55:00,
2013-06-24 18:05:00,84.0,66.1,29.60,South,169,9.0,24.0,55,0.00,,,0.26,Wunderground v.1.15,2013-06-24 23:05:00,
2013-06-24 18:20:00,84.0,66.1,29.60,South,178,9.0,23.0,55,0.00,,,0.26,Wunderground v.1.15,2013-06-24 23:20:00,
2013-06-24 18:30:00,84.1,66.2,29.61,SW,219,10.0,23.0,55,0.00,,,0.26,Wunderground v.1.15,2013-06-24 23:30:00,
2013-06-24 18:35:00,84.1,65.1,29.61,South,188,9.0,23.0,53,0.00,,,0.26,Wunderground v.1.15,2013-06-24 23:35:00,
2013-06-24 18:45:00,84.3,65.3,29.61,SSE,158,9.0,23.0,53,0.00,,,0.26,Wunderground v.1.15,2013-06-24 23:45:00,
2013-06-24 18:50:00,84.5,65.5,29.61,South,191,8.0,23.0,53,0.00,,,0.26,Wunderground v.1.15,2013-06-24 23:50:00,
2013-06-24 19:00:00,84.9,65.3,29.60,South,186,10.0,10.0,52,0.00,,,0.26,Wunderground v.1.15,2013-06-25 00:00:00,
2013-06-24 19:10:00,84.9,64.8,29.60,South,184,8.0,23.0,51,0.00,,,0.26,Wunderground v.1.15,2013-06-25 00:10:00,
2013-06-24 19:15:00,84.7,65.1,29.61,South,171,8.0,23.0,52,0.00,,,0.26,Wunderground v.1.15,2013-06-25 00:15:00,
2013-06-24 19:25:00,84.0,65.0,29.61,SE,126,7.0,22.0,53,0.00,,,0.26,Wunderground v.1.15,2013-06-25 00:25:00,
2013-06-24 19:35:00,83.4,65.0,29.61,SSE,167,6.0,22.0,54,0.00,,,0.26,Wunderground v.1.15,2013-06-25 00:35:00,
2013-06-24 19:40:00,83.4,65.0,29.61,SSW,206,6.0,22.0,54,0.00,,,0.26,Wunderground v.1.15,2013-06-25 00:40:00,
2013-06-24 19:50:00,83.4,65.5,29.61,SE,130,5.0,15.0,55,0.00,,,0.26,Wunderground v.1.15,2013-06-25 00:50:00,
2013-06-24 20:00:00,83.2,65.4,29.61,SSE,160,5.0,5.0,55,0.00,,,0.26,Wunderground v.1.15,2013-06-25 01:00:00,
2013-06-24 20:10:00,82.6,65.8,29.61,SSE,165,6.0,15.0,57,0.00,,,0.26,Wunderground v.1.15,2013-06-25 01:10:00,
2013-06-24 20:15:00,82.2,65.4,29.61,SE,136,7.0,15.0,57,0.00,,,0.26,Wunderground v.1.15,2013-06-25 01:15:00,
2013-06-24 20:25:00,81.8,65.6,29.61,SSE,151,8.0,10.0,58,0.00,,,0.26,Wunderground v.1.15,2013-06-25 01:25:00,
2013-06-24 20:35:00,81.4,65.7,29.59,SSE,152,8.0,13.0,59,0.00,,,0.26,Wunderground v.1.15,2013-06-25 01:35:00,
2013-06-24 20:45:00,81.1,65.9,29.63,SE,134,4.0,13.0,60,0.00,,,0.26,Wunderground v.1.15,2013-06-25 01:45:00,
2013-06-24 20:50:00,80.9,65.7,29.63,SSE,151,4.0,16.0,60,0.00,,,0.26,Wunderground v.1.15,2013-06-25 01:50:00,
2013-06-24 21:00:00,80.7,66.0,29.63,SE,140,5.0,16.0,61,0.00,,,0.26,Wunderground v.1.15,2013-06-25 02:00:00,
2013-06-24 21:10:00,80.3,66.1,29.63,SE,141,4.0,4.0,62,0.00,,,0.26,Wunderground v.1.15,2013-06-25 02:10:00,
2013-06-24 21:35:00,79.8,66.1,29.63,ESE,117,5.0,10.0,63,0.00,,,0.26,Wunderground v.1.15,2013-06-25 02:35:00,
2013-06-24 21:40:00,79.6,66.3,29.63,SE,124,6.0,10.0,64,0.00,,,0.26,Wunderground v.1.15,2013-06-25 02:40:00,
2013-06-24 21:45:00,79.4,66.6,29.60,ESE,110,6.0,10.0,65,0.00,,,0.26,Wunderground v.1.15,2013-06-25 02:45:00,
2013-06-24 21:55:00,79.6,66.8,29.60,SSW,196,7.0,11.0,65,0.00,,,0.26,Wunderground v.1.15,2013-06-25 02:55:00,
2013-06-24 22:05:00,79.6,66.8,29.65,SSE,162,5.0,11.0,65,0.00,,,0.26,Wunderground v.1.15,2013-06-25 03:05:00,
2013-06-24 22:30:00,79.9,66.2,29.67,SSW,196,5.0,17.0,63,0.00,,,0.26,Wunderground v.1.15,2013-06-25 03:30:00,
2013-06-24 22:40:00,80.1,65.9,29.67,South,188,5.0,17.0,62,0.00,,,0.26,Wunderground v.1.15,2013-06-25 03:40:00,
2013-06-24 22:50:00,80.1,65.9,29.68,SSE,164,6.0,6.0,62,0.00,,,0.26,Wunderground v.1.15,2013-06-25 03:50:00,
2013-06-24 23:00:00,80.1,66.4,29.68,South,178,7.0,7.0,63,0.00,,,0.26,Wunderground v.1.15,2013-06-25 04:00:00,
2013-06-24 23:05:00,80.1,65.9,29.68,SSW,200,8.0,13.0,62,0.00,,,0.26,Wunderground v.1.15,2013-06-25 04:05:00,
2013-06-24 23:10:00,80.3,66.1,29.68,SSW,202,8.0,18.0,62,0.00,,,0.26,Wunderground v.1.15,2013-06-25 04:10:00,
2013-06-24 23:15:00,80.7,66.5,29.67,SE,145,9.0,18.0,62,0.00,,,0.26,Wunderground v.1.15,2013-06-25 04:15:00,
2013-06-24 23:25:00,80.9,66.2,29.67,SSW,192,9.0,21.0,61,0.00,,,0.26,Wunderground v.1.15,2013-06-25 04:25:00,
2013-06-24 23:35:00,80.5,65.8,29.67,SSE,154,7.0,21.0,61,0.00,,,0.26,Wunderground v.1.15,2013-06-25 04:35:00,
2013-06-24 23:40:00,80.5,65.8,29.67,South,186,6.0,6.0,61,0.00,,,0.26,Wunderground v.1.15,2013-06-25 04:40:00,
2013-06-24 23:45:00,80.3,66.1,29.65,South,182,8.0,8.0,62,0.00,,,0.26,Wunderground v.1.15,2013-06-25 04:45:00,
2013-06-24 23:50:00,80.1,65.9,29.65,SE,141,8.0,8.0,62,0.00,,,0.26,Wunderground v.1.15,2013-06-25 04:50:00,